Lid_Strength_Index
6 6 5 5 5 5 6 6 7 7 7 7 7 7 7 6 6 6 6 5 6 5 5 4 4 3 3 2 2 2 3 2 0 -1 0 -0 -1 -1 -1 -1 -1 -1 -1
6 6 6 6 6 6 6 7 8 8 7 7 7 7 7 7 6 6 6 6 5 6 5 5 4 4 3 3 2 1 3 2 1 -1 -0 -0 -1 -1 -1 -1 -1 -1 -1
5 6 6 6 6 6 7 7 7 7 7 7 7 7 7 6 6 5 5 5 5 4 5 5 5 4 4 3 2 2 3 2 -0 -0 -0 -1 -1 -1 -1 -0 -1 -1 -1
5 6 6 6 6 6 7 7 7 8 8 8 8 7 7 6 6 5 5 5 5 5 4 4 5 5 4 4 3 2 3 2 -0 -0 -1 -1 -1 -1 -1 -1 -1 -1 -1
6 7 7 6 5 6 7 7 7 8 9 9 9 8 7 7 6 6 5 5 4 4 4 4 4 5 5 4 3 2 1 2 1 -1 -1 -1 -1 -1 -1 -1 -1 -1 -1
6 6 7 6 6 6 7 7 8 8 9 9 9 9 8 7 6 5 5 5 4 4 4 4 3 4 4 4 4 3 1 2 0 -1 -1 -1 -1 -1 -1 -1 -1 -1 -1
6 6 7 7 6 7 7 8 9 9 9 9 10 9 8 7 6 5 4 4 4 3 3 4 4 3 3 3 4 3 2 2 -1 -2 -1 -1 -1 -1 -1 -1 -1 -1 -1
6 6 6 7 6 6 7 8 9 10 10 9 10 10 10 7 4 3 3 3 3 3 3 3 3 3 3 3 3 3 2 3 -1 -2 -2 -1 -1 -1 -1 -1 -1 -1 -1
6 6 6 6 6 6 8 8 8 9 9 8 8 9 10 9 7 4 3 3 2 2 2 3 3 3 2 2 2 2 2 5 2 -1 -2 -1 -1 -1 -1 -1 -1 -1 -2
6 6 6 6 6 6 7 7 7 7 8 9 8 7 7 8 11 10 5 4 3 3 2 2 3 3 2 2 1 2 3 6 4 -0 -1 -1 -1 -1 -1 -1 -1 -2 -2
5 6 6 6 6 5 6 6 8 8 8 8 8 8 8 8 7 9 10 8 5 3 2 2 1 2 2 2 1 2 3 6 6 2 1 -1 -1 -1 -1 -2 -2 -2 -2
6 6 6 5 5 5 6 8 8 8 8 8 8 8 9 9 9 9 9 9 8 5 3 2 1 1 2 1 1 2 4 6 6 4 2 -0 -1 -1 -1 -2 -2 -2 -2
7 6 6 6 6 6 7 7 8 8 8 8 9 9 8 8 7 7 8 8 8 6 4 3 1 -0 1 1 1 2 4 6 5 4 1 1 0 -0 -1 -1 -1 -2 -2
6 5 6 6 7 7 7 8 8 9 8 9 9 9 9 9 8 7 7 8 9 8 6 5 1 -0 -0 0 0 3 3 7 6 4 3 2 1 1 0 -0 -1 -1 -1
6 6 7 7 7 8 8 9 9 9 9 10 9 9 9 8 7 6 5 6 8 10 7 4 3 -0 -1 -0 1 1 0 5 6 4 4 3 2 2 1 1 1 0 -0
7 7 8 8 8 8 8 9 9 9 9 8 9 9 8 8 8 6 5 6 6 7 7 2 2 0 0 0 1 -0 2 4 5 5 5 5 3 3 3 2 2 1 1
7 8 8 8 9 10 10 10 10 9 8 8 6 8 9 8 8 7 5 6 5 5 7 5 1 0 0 0 0 0 2 1 3 6 6 6 5 5 4 4 3 3 3
7 8 9 9 10 10 10 10 10 10 8 8 7 7 8 7 7 5 5 5 5 5 7 8 2 1 1 0 1 1 1 1 1 5 5 6 6 6 5 5 5 5 4
8 8 9 11 11 11 11 9 9 9 8 8 8 8 8 7 7 6 5 6 6 7 7 9 3 2 2 2 1 1 1 1 1 5 6 6 6 6 6 6 5 5 6
8 9 9 10 12 11 11 10 9 9 9 9 9 8 7 7 7 6 6 6 6 7 8 8 6 4 2 2 1 2 2 2 3 0 2 3 5 6 6 6 6 6 6
8 9 10 11 13 12 12 11 11 11 12 12 12 11 9 6 6 7 7 7 9 10 9 7 4 3 3 3 3 2 3 3 1 1 3 3 2 2 4 5 5 6 6
9 9 10 12 13 13 13 12 11 12 12 13 13 13 11 11 9 9 9 11 10 6 4 4 4 4 3 3 2 3 3 4 4 0 1 1 1 2 1 1 6 7 7
9 10 10 11 13 14 13 12 12 13 13 14 14 14 13 12 11 10 11 11 12 13 14 5 8 7 6 2 3 3 3 3 3 1 3 7 7 9 8 8 8 7 7
9 10 10 10 12 14 13 12 13 14 14 14 14 14 13 13 12 11 11 12 12 13 13 11 11 12 10 2 2 3 3 3 4 5 4 9 8 9 10 10 10 9 9
9 9 10 11 13 15 13 13 13 14 15 14 14 13 14 13 12 11 12 12 13 13 12 12 13 13 12 11 5 2 5 7 8 8 6 8 10 11 11 11 9 10 11
9 10 10 11 12 14 14 13 13 14 16 15 14 14 14 13 13 12 13 13 15 15 13 13 13 13 12 12 11 4 5 8 9 9 10 9 9 10 13 12 12 10 10